Location: Rounton
(54.4000°N, 1.3500°W)
Time: 03:04:16
(UTC+00:00)

Altair - Pass Details

Date: 09 December 2021
Orbit: 1501 x 1683 km, 47.2° (Epoch: 19 January)

Event Time Altitude Azimuth Distance (km) Brightness Sun altitude
Rises 21:28:08 0° 283° (WNW) 4,675 10.7 -47.9°
Reaches altitude 10° 21:32:42 10° 264° (W) 3,669 9.8 -48.5°
Enters shadow 21:36:23 16° 240° (WSW) 3,236 9.3 -48.9°
